Location: Bonnesvalyn
(49.1218°N, 3.3177°E)
Time: 22:18:12
(UTC+00:00)

Cosmos 2219 Rocket - Pass Details

Date: 09 February 2023
Orbit: 826 x 848 km, 71.0° (Epoch: 28 March)

Event Time Altitude Azimuth Distance (km) Brightness Sun altitude
Rises 19:53:37 0° 251° (WSW) 3,364 6.2 -29.3°
Reaches altitude 10° 19:56:33 10° 266° (W) 2,437 5.4 -29.7°
Maximum altitude 20:00:56 23° 318° (NW) 1,699 4.2 -30.4°
Enters shadow 20:05:16 10° 10° (N) 2,424 4.6 -31.1°
